Miscellaneous Local Product
Issued by NWS Hastings, NE

Home | Current Version | Previous Version | Text Only | Print | Product List | Glossary On
Versions: 1 2 3 4 5 6 7 8 9 10 11 12 13 14 15 16 17 18 19 20 21 22 23 24 25 26 27 28 29 30 31 32 33 34 35 36 37 38 39 40 41 42 43 44 45 46 47 48 49 50
369
AXUS43 KGID 221902
MISGRI

GID CWA HOURLY WEATHER ROUNDUP
NATIONAL WEATHER SERVICE HASTINGS NE
200 PM CDT FRI MAY 22 2015

NOTE: "FAIR" INDICATES FEW OR NO CLOUDS BELOW 12,000 FEET WITH NO
SIGNIFICANT WEATHER AND/OR OBSTRUCTIONS TO VISIBILITY.

...SOUTH CENTRAL NEBRASKA...

CITY           SKY/WX    TMP DP  RH WIND       PRES   REMARKS
GRAND ISLAND   LGT RAIN  54  46  74 SE5       30.24S
HASTINGS       CLOUDY    53  47  79 SE3       30.22F
KEARNEY        CLOUDY    52  45  76 E10       30.22F
ORD            LGT RAIN  50  45  83 S12       30.23R
YORK           CLOUDY    57  46  67 S5        30.25S
AURORA         LGT RAIN  56  39  53 E7G17     30.22F
LEXINGTON      LGT RAIN  49  47  93 E10       30.20F
HOLDREGE       CLOUDY    50  45  82 E13       30.20F
HEBRON         CLOUDY    59  44  58 SE7       30.23F

...NEBRASKA PANHANDLE...

CITY           SKY/WX    TMP DP  RH WIND       PRES   REMARKS
CHADRON        CLOUDY    55  42  61 SE17      30.08F
ALLIANCE       LGT RAIN  49  45  86 SE17      30.09F
SCOTTSBLUFF    CLOUDY    51  32  48 SE20      30.07S
SIDNEY         LGT RAIN  47  45  93 SE21      30.07F FOG

...WESTERN AND NORTH CENTRAL NEBRASKA...

CITY           SKY/WX    TMP DP  RH WIND       PRES   REMARKS
VALENTINE      CLOUDY    59  40  49 S20       30.16F
AINSWORTH      CLOUDY    58  44  59 S15       30.19S
ONEILL         CLOUDY    62  41  45 S14G21    30.22S
BROKEN BOW     LGT RAIN  51  45  79 SE15G23   30.21F
IMPERIAL       LGT RAIN  50  47  89 SE20G25   30.09F
NORTH PLATTE   LGT RAIN  47  45  93 E17       30.17S
MCCOOK         RAIN      50  48  93 E14       30.13S FOG

...EASTERN NEBRASKA...

CITY           SKY/WX    TMP DP  RH WIND       PRES   REMARKS
NORFOLK        CLOUDY    65  41  41 S16       30.23S
SO SIOUX CITY  CLOUDY    73  39  29 S9        30.20F
TEKAMAH        CLOUDY    70  42  36 S12       30.22S
COLUMBUS       CLOUDY    61  39  44 S8        30.28R
ALBION         CLOUDY    59  42  53 S16       30.24S
OMAHA EPPLEY   CLOUDY    70  39  32 SW10      30.22F
OFFUTT AFB     CLOUDY    67  46  46 S8        30.23S
MILLARD        CLOUDY    68  44  41 SE3       30.23F
LINCOLN        CLOUDY    62  46  55 S7        30.25F
NEBRASKA CITY  LGT RAIN  62  42  47 S7        30.26R
BEATRICE       CLOUDY    60  46  59 S6        30.24S
FALLS CITY     CLOUDY    64  48  56 S7        30.24F

...NORTHERN KANSAS...

CITY           SKY/WX    TMP DP  RH WIND       PRES   REMARKS
GOODLAND       LGT RAIN  50  49  96 SE16G26   30.05F FOG
HILL CITY      CLOUDY    54  48  80 SE14G21   30.14F
NORTON         DRIZZLE   50  46  87 E9        30.13F
PHILLIPSBURG   CLOUDY    57  50  77 E9        30.17S
SMITH CENTER   CLOUDY    54  48  82 E14       30.18F
HAYS           CLOUDY    55  45  67 SE15      30.15F
RUSSELL        CLOUDY    55  50  83 S12       30.15F
CONCORDIA      CLOUDY    58  48  69 SE13      30.22F
SALINA         CLOUDY    60  51  72 S13       30.20S
TOPEKA         CLOUDY    62  46  55 SE9       30.23F



USA.gov is the U.S. government's official web portal to all federal, state and local government web resources and services.